[[{"header":{"parameterUnit":"m.s-1","parameterCategory":2,"la1":30.2991,"la2":30.254,"lo1":-89.0895,"lo2":-89.0444,"dy":0.0017,"dx":0.0017,"nx":28,"ny":28,"refTime":"2025-04-18T03:00:00:Z","depth":"0","parameterNumber":2,"parameterNumberName":"U-component_of_CURRENTS"},"data":[0,0,0,0,0,0,0,0,0,0,0,0,0,0,0,0,0,0,0,0,0,0,0,0,0,0,0,0,0,0,0,0,0,0,0,0,0,0,0,0,0,0,0,0,0,0,0,0,0,0,0,0,0,0,0,0,0,0,-0.2732,-0.2733,0,-0.2802,-0.2802,-0.2803,-0.2763,-0.2762,-0.276,-0.2759,-0.2709,-0.2709,-0.2709,0,0,0,0,0,0,0,0,0,0,0,0,0,-0.2599,-0.2601,-0.2732,-0.2733,-0.2734,-0.2802,-0.2803,-0.2803,-0.2764,-0.2762,-0.276,-0.2758,-0.2709,-0.2709,-0.2709,0,0,0,0,0,0,0,0,0,0,0,0,0,-0.2657,-0.2602,-0.2732,-0.2727,-0.2727,-0.2802,-0.2803,-0.2803,-0.2764,-0.2762,-0.2759,-0.2757,-0.2709,-0.2709,-0.2709,-0.2755,0,0,-0.271,-0.271,0,0,0,0,0,0,0,0,-0.2654,-0.2661,-0.2726,-0.2727,-0.2728,-0.2776,-0.2738,-0.2783,-0.2765,-0.2745,-0.2759,-0.2756,-0.2725,-0.2724,-0.2737,-0.2753,-0.275,-0.271,-0.271,-0.271,-0.271,0,0,0,0,0,0,0,-0.265,-0.2659,-0.2754,-0.2728,-0.2729,-0.2734,-0.2738,-0.2747,-0.2741,-0.2746,-0.2745,-0.2761,-0.2724,-0.2737,-0.2735,-0.275,-0.271,-0.271,-0.271,-0.271,-0.2783,-0.2784,0,0,0,0,0,0,-0.2653,-0.2655,-0.2752,-0.2757,-0.269,-0.2738,-0.2743,-0.2759,-0.2743,-0.2741,-0.2763,-0.2759,-0.2738,-0.2735,-0.2733,-0.2823,-0.271,-0.271,-0.271,-0.2781,-0.2783,-0.2785,0,0,0,0,0,0,-0.2649,-0.2661,-0.275,-0.2711,-0.2723,-0.2743,-0.2761,-0.2761,-0.2772,-0.2758,-0.2752,-0.2773,-0.2736,-0.2733,-0.2744,-0.2819,-0.271,-0.271,-0.2779,-0.2782,-0.2784,-0.2979,0,0,0,0,0,0,-0.2645,-0.2659,-0.267,-0.2712,-0.2726,-0.2812,-0.2763,-0.2765,-0.2788,-0.2784,-0.2765,-0.2758,-0.2734,-0.2745,-0.2744,-0.2817,-0.271,-0.2776,-0.278,-0.2783,-0.297,-0.2988,-0.3003,0,0,0,0,0,-0.264,-0.2676,-0.267,-0.2682,-0.2741,-0.2815,-0.2823,-0.2825,-0.2791,-0.282,-0.2793,-0.2759,-0.2766,-0.2747,-0.2746,-0.282,-0.2775,-0.2779,-0.2783,-0.2962,-0.2984,-0.3003,0,0,0,0,0,0,-0.2632,-0.2677,-0.2671,-0.2719,-0.2768,-0.281,-0.2838,-0.2835,-0.284,-0.2822,-0.2786,-0.2781,-0.2819,-0.2783,-0.2762,-0.2845,-0.2764,-0.2769,-0.2901,-0.2921,-0.2937,-0.2919,-0.271,0,0,0,0,0,-0.2635,-0.266,-0.2717,-0.2751,-0.2781,-0.2807,-0.2833,-0.2841,-0.2855,-0.2854,-0.2844,-0.2827,-0.2841,-0.2848,-0.2844,-0.2896,-0.2814,-0.2938,-0.2955,-0.2969,-0.2951,-0.2911,-0.2922,-0.2799,-0.2799,-0.2799,0,0,-0.2638,-0.2667,-0.268,-0.2749,-0.278,-0.2853,-0.2816,-0.287,-0.2921,-0.2849,-0.2898,-0.2884,-0.2862,-0.2921,-0.2936,-0.2901,-0.296,-0.2975,-0.2988,-0.2961,-0.2916,-0.2928,-0.2939,-0.2802,-0.2801,-0.2801,0,0,-0.2676,-0.2689,-0.2732,-0.2789,-0.2854,-0.2882,-0.2902,-0.2956,-0.2968,-0.3017,-0.2984,-0.3016,-0.3018,-0.3047,-0.3052,-0.3156,-0.3045,-0.3147,-0.3232,-0.3196,-0.3205,-0.3213,-0.3121,-0.3118,-0.3163,-0.3164,-0.3164,0,-0.2679,-0.2746,-0.276,-0.2837,-0.2889,-0.29,-0.298,-0.3016,-0.3063,-0.3074,-0.3044,-0.3075,-0.3087,-0.3161,-0.3208,-0.3202,-0.3115,-0.317,-0.3219,-0.3224,-0.3228,-0.3132,-0.3127,-0.3174,-0.3173,-0.3172,-0.3171,0,-0.2757,-0.2827,-0.2867,-0.2955,-0.301,-0.3086,-0.3144,-0.3181,-0.3181,-0.3203,-0.3251,-0.3264,-0.3267,-0.3312,-0.3298,-0.3358,-0.3263,-0.3243,-0.3173,-0.3253,-0.3145,-0.3137,-0.3188,-0.3184,-0.3181,-0.3179,0,0,-0.2729,-0.2891,-0.2902,-0.296,-0.3082,-0.3123,-0.3219,-0.3296,-0.3303,-0.3363,-0.3369,-0.3477,-0.3442,-0.3444,-0.3448,-0.3453,-0.3452,-0.3365,-0.3359,-0.328,-0.3301,-0.3261,-0.3246,-0.3423,-0.3422,-0.3422,-0.3213,0,-0.279,-0.2934,-0.3003,-0.3132,-0.3216,-0.3269,-0.3336,-0.3392,-0.3406,-0.341,-0.3453,-0.3456,-0.3506,-0.3487,-0.3519,-0.3441,-0.3435,-0.3506,-0.3227,-0.3217,-0.318,-0.3239,-0.3131,-0.2938,-0.3203,-0.3202,-0.3201,0,-0.284,-0.2935,-0.3074,-0.3201,-0.3234,-0.33,-0.3352,-0.3414,-0.3446,-0.3441,-0.3474,-0.3455,-0.3505,-0.3497,-0.3451,-0.3473,-0.3405,-0.3354,-0.3344,-0.3225,-0.3162,-0.2899,-0.291,-0.2904,-0.3185,-0.3187,-0.3188,0,-0.2786,-0.2969,-0.3064,-0.3124,-0.3276,-0.3313,-0.3362,-0.3412,-0.3406,-0.3432,-0.3385,-0.3443,-0.3403,-0.3377,-0.3337,-0.3356,-0.3216,-0.3223,-0.3124,-0.3116,-0.2928,-0.2907,-0.2904,-0.3172,-0.3172,-0.3173,-0.3173,0,-0.2831,-0.2906,-0.3037,-0.3103,-0.3145,-0.3263,-0.3264,-0.3318,-0.3327,-0.3293,-0.3373,-0.3333,-0.3362,-0.3305,-0.3281,-0.3171,-0.3176,-0.3125,-0.3073,-0.2993,-0.2981,-0.2887,-0.2911,-0.3165,-0.3166,-0.3168,-0.3169,0,-0.2782,-0.2888,-0.2977,-0.3112,-0.3131,-0.3141,-0.3173,-0.3145,-0.3201,-0.3143,-0.314,-0.319,-0.3151,-0.316,-0.3081,-0.3064,-0.2932,-0.2945,-0.2834,-0.2777,-0.2704,-0.2741,-0.2609,-0.2538,-0.2779,-0.2777,-0.2775,0,-0.2782,-0.2835,-0.2919,-0.2909,-0.297,-0.2989,-0.2966,-0.3044,-0.3013,-0.3055,-0.3001,-0.2997,-0.2976,-0.287,-0.2858,-0.2782,-0.2813,-0.2624,-0.2696,-0.2686,-0.2687,-0.2714,-0.2666,-0.2496,-0.2493,-0.2489,-0.2487,0,-0.2756,-0.276,-0.2804,-0.2782,-0.276,-0.273,-0.2735,-0.2705,-0.278,-0.2772,-0.2777,-0.2781,-0.2745,-0.2673,-0.2617,-0.2567,-0.2576,-0.2557,-0.2569,-0.2495,-0.2492,-0.2401,-0.2622,-0.2459,-0.2462,-0.2464,-0.2465,-0.2466,-0.2645,-0.2639,-0.2644,-0.2605,-0.2558,-0.2481,-0.2415,-0.2451,-0.2417,-0.2425,-0.2531,-0.2515,-0.2523,-0.2462,-0.2416,-0.2316,-0.2376,-0.2258,-0.23,-0.2326,-0.2293,-0.2453,-0.2245,-0.2246,-0.2248,-0.2249,-0.225,0,-0.2479,-0.2488,-0.2463,-0.2378,-0.2239,-0.229,-0.2234,-0.2166,-0.2121,-0.2203,-0.2224,-0.2257,-0.2195,-0.2218,-0.2167,-0.2086,-0.2043,-0.2042,-0.2052,-0.2012,-0.2142,-0.2172,-0.1912,-0.1912,-0.1912,-0.1912,-0.1912,-0.1912,-0.2377,-0.2308,-0.2319,-0.2072,-0.2,-0.1797,-0.1743,-0.1726,-0.1758,-0.1778,-0.1835,-0.1923,-0.1983,-0.2177,-0.2091,-0.1995,-0.1962,-0.1894,-0.1931,-0.205,-0.2075,-0.2098,-0.2134,-0.187,-0.187,-0.172,-0.1719,-0.1719]},{"header":{"parameterUnit":"m.s-1","parameterCategory":2,"la1":30.2991,"la2":30.254,"lo1":-89.0895,"lo2":-89.0444,"dy":0.0017,"dx":0.0017,"nx":28,"ny":28,"refTime":"2025-04-18T03:00:00:Z","depth":"0","parameterNumber":3,"parameterNumberName":"V-component_of_CURRENTS"},"data":[0,0,0,0,0,0,0,0,0,0,0,0,0,0,0,0,0,0,0,0,0,0,0,0,0,0,0,0,0,0,0,0,0,0,0,0,0,0,0,0,0,0,0,0,0,0,0,0,0,0,0,0,0,0,0,0,0,0,-0.0017,-0.0016,0,0.011,0.0112,0.0113,0.0166,0.0165,0.0165,0.0164,0.0349,0.0354,0.036,0,0,0,0,0,0,0,0,0,0,0,0,0,-0.0042,-0.0043,-0.0018,-0.0016,-0.0015,0.011,0.0112,0.0114,0.0166,0.0165,0.0165,0.0164,0.0347,0.0354,0.036,0,0,0,0,0,0,0,0,0,0,0,0,0,0.0017,-0.0043,-0.0018,0.0024,0.0029,0.0109,0.0112,0.0114,0.0166,0.0165,0.0165,0.0164,0.0345,0.0353,0.0361,0.0427,0,0,0.0386,0.0389,0,0,0,0,0,0,0,0,0.0014,0.0018,0.0017,0.0021,0.0027,0.0119,0.0171,0.0221,0.0166,0.0117,0.0164,0.0164,0.0276,0.029,0.0319,0.0435,0.0443,0.0387,0.0391,0.0395,0.0397,0,0,0,0,0,0,0,0.0009,0.0014,0.0036,0.0018,0.0024,0.0096,0.0102,0.0181,0.0203,0.0121,0.0125,0.0135,0.028,0.0311,0.0324,0.0446,0.0386,0.0394,0.0399,0.0402,0.0674,0.0676,0,0,0,0,0,0,-0.0021,0.0009,0.0032,0.0039,0.0015,0.0096,0.0104,0.0092,0.0201,0.0215,0.0135,0.0137,0.0297,0.0314,0.033,0.0431,0.0395,0.0402,0.0407,0.0671,0.0674,0.0677,0,0,0,0,0,0,-0.0022,-0.0021,0.0026,0.0027,0.0037,0.0096,0.0084,0.0095,0.0122,0.021,0.0226,0.0149,0.0297,0.0319,0.0406,0.0437,0.0406,0.0413,0.0669,0.0672,0.0676,0.0621,0,0,0,0,0,0,-0.0024,-0.0022,-0.0035,0.0023,0.0036,0.0064,0.0085,0.0098,0.0128,0.0131,0.0228,0.0244,0.0298,0.0394,0.0414,0.0448,0.042,0.0666,0.067,0.0674,0.062,0.0623,0.0625,0,0,0,0,0,-0.0025,-0.0053,-0.0037,-0.0033,0.0014,0.0064,0.0078,0.012,0.0129,0.0141,0.0214,0.0241,0.0437,0.0402,0.0425,0.0462,0.0663,0.0669,0.0674,0.0619,0.0622,0.0625,0,0,0,0,0,0,-0.0069,-0.0048,-0.003,-0.0049,0.0003,0.0071,0.008,0.0117,0.0184,0.0185,0.0267,0.029,0.0387,0.0436,0.0395,0.0558,0.0557,0.0568,0.0508,0.0511,0.0514,0.0447,0.0427,0,0,0,0,0,-0.0085,-0.0102,-0.0051,-0.0061,-0.0046,0.002,0.0046,0.0079,0.0143,0.017,0.0246,0.0334,0.0431,0.0473,0.0564,0.0643,0.0646,0.0687,0.0689,0.069,0.0656,0.0698,0.0698,0.0694,0.0694,0.0694,0,0,-0.0102,-0.0093,-0.0101,-0.007,-0.0033,-0.001,0.0034,0.0064,0.0099,0.0183,0.0253,0.0348,0.0458,0.0554,0.0601,0.0592,0.0696,0.0697,0.0697,0.0661,0.0703,0.0702,0.0702,0.0698,0.0697,0.0697,0,0,-0.0151,-0.0141,-0.0171,-0.0134,-0.0088,-0.0037,-0.0033,0.0042,0.0086,0.017,0.0252,0.0351,0.0487,0.0573,0.0634,0.0703,0.0713,0.0747,0.0695,0.0737,0.0735,0.0734,0.0729,0.0728,0.0739,0.0739,0.0739,0,-0.017,-0.0205,-0.0163,-0.017,-0.0146,-0.0057,-0.0059,0.0009,0.0112,0.015,0.018,0.0396,0.0494,0.0611,0.0641,0.0704,0.0705,0.0669,0.0732,0.0732,0.0731,0.0727,0.0726,0.0737,0.0737,0.0737,0.0738,0,-0.0237,-0.025,-0.0262,-0.0244,-0.0202,-0.019,-0.0096,-0.0038,0.0032,0.0102,0.0229,0.0371,0.0482,0.0558,0.062,0.0692,0.0685,0.0731,0.0705,0.0727,0.0723,0.0722,0.0734,0.0735,0.0735,0.0736,0,0,-0.0317,-0.0315,-0.0317,-0.0321,-0.0245,-0.022,-0.0152,-0.007,-0.0041,0.0093,0.0138,0.034,0.0401,0.0474,0.0585,0.0632,0.0652,0.0664,0.0668,0.0621,0.0695,0.076,0.0766,0.0698,0.0698,0.0698,0.0687,0,-0.0381,-0.044,-0.0395,-0.04,-0.0418,-0.0305,-0.0251,-0.0156,-0.0061,0.0012,0.0169,0.0266,0.0376,0.043,0.0498,0.0622,0.065,0.0647,0.0713,0.0713,0.0739,0.077,0.0844,0.0846,0.0687,0.0687,0.0687,0,-0.0462,-0.0493,-0.0545,-0.0503,-0.0495,-0.0467,-0.0379,-0.0312,-0.0176,-0.0107,0.0007,0.0125,0.0252,0.033,0.0494,0.0479,0.0564,0.0648,0.0651,0.0721,0.078,0.0807,0.0853,0.1054,0.0687,0.0687,0.0687,0,-0.0578,-0.0581,-0.0635,-0.0624,-0.0567,-0.0548,-0.0489,-0.0366,-0.0312,-0.0194,-0.0156,0.0006,0.0095,0.022,0.043,0.044,0.0582,0.0624,0.0753,0.0756,0.0836,0.0848,0.1051,0.07,0.07,0.07,0.07,0,-0.0684,-0.0711,-0.0701,-0.0737,-0.0754,-0.0663,-0.0643,-0.0561,-0.0458,-0.0405,-0.0237,-0.0161,0.0071,0.0212,0.0363,0.0564,0.0533,0.0727,0.0766,0.0824,0.0834,0.1027,0.1091,0.07,0.07,0.07,0.07,0,-0.0806,-0.0808,-0.0859,-0.0839,-0.0824,-0.0836,-0.0743,-0.0716,-0.0615,-0.0547,-0.0516,-0.03,-0.0102,0.0128,0.0348,0.0494,0.0785,0.0742,0.0777,0.0821,0.1122,0.1178,0.1336,0.1435,0.0846,0.0847,0.0849,0,-0.087,-0.0931,-0.0954,-0.0974,-0.0969,-0.0955,-0.0928,-0.0815,-0.0771,-0.0614,-0.0587,-0.0382,-0.0189,0.0157,0.0454,0.0712,0.0866,0.0905,0.0963,0.1143,0.1234,0.1265,0.1339,0.1035,0.1038,0.104,0.1042,0,-0.0982,-0.1003,-0.1051,-0.1111,-0.1112,-0.1088,-0.104,-0.1032,-0.0884,-0.081,-0.0655,-0.0498,-0.0109,0.027,0.0628,0.0793,0.1058,0.096,0.1158,0.1402,0.1436,0.1549,0.1001,0.1063,0.1061,0.1059,0.1058,0.1057,-0.1036,-0.1104,-0.1171,-0.1214,-0.1216,-0.1192,-0.1171,-0.1101,-0.1027,-0.0857,-0.0702,-0.0393,0.0137,0.0687,0.0871,0.1319,0.1243,0.1459,0.1504,0.1512,0.1651,0.1126,0.124,0.124,0.1239,0.1238,0.1237,0,-0.1086,-0.1167,-0.1241,-0.1282,-0.1288,-0.1262,-0.121,-0.1151,-0.1063,-0.084,-0.0637,0.0022,0.055,0.103,0.1631,0.1863,0.1906,0.1973,0.2056,0.21,0.1661,0.172,0.1932,0.1932,0.1932,0.1932,0.1932,0.1931,-0.1115,-0.1225,-0.128,-0.1323,-0.1331,-0.1302,-0.1269,-0.1171,-0.0994,-0.0589,-0.0185,0.0154,0.0839,0.178,0.2343,0.2386,0.2578,0.2546,0.2626,0.2364,0.2321,0.2279,0.2357,0.2699,0.27,0.3082,0.3085,0.3088]}],[{"header":{"parameterUnit":"m.s-1","parameterCategory":2,"la1":30.2991,"la2":30.254,"lo1":-89.0895,"lo2":-89.0444,"dy":0.0017,"dx":0.0017,"nx":28,"ny":28,"refTime":"2025-04-18T03:00:00:Z","depth":"2","parameterNumber":2,"parameterNumberName":"U-component_of_CURRENTS"},"data":[0,0,0,0,0,0,0,0,0,0,0,0,0,0,0,0,0,0,0,0,0,0,0,0,0,0,0,0,0,0,0,0,0,0,0,0,0,0,0,0,0,0,0,0,0,0,0,0,0,0,0,0,0,0,0,0,0,0,-0.2546,-0.2547,0,-0.2603,-0.2603,-0.2603,-0.2565,-0.2564,-0.2563,-0.2561,-0.2525,-0.2525,-0.2525,0,0,0,0,0,0,0,0,0,0,0,0,0,-0.2418,-0.242,-0.2546,-0.2547,-0.2549,-0.2603,-0.2603,-0.2603,-0.2565,-0.2564,-0.2562,-0.2561,-0.2525,-0.2525,-0.2525,0,0,0,0,0,0,0,0,0,0,0,0,0,-0.2469,-0.2421,-0.2546,-0.254,-0.2541,-0.2603,-0.2603,-0.2603,-0.2566,-0.2564,-0.2562,-0.256,-0.2525,-0.2525,-0.2525,-0.2563,0,0,-0.2526,-0.2526,0,0,0,0,0,0,0,0,-0.2466,-0.2473,-0.254,-0.2541,-0.2542,-0.258,-0.2545,-0.2587,-0.2566,-0.255,-0.2561,-0.2559,-0.254,-0.2539,-0.2547,-0.2561,-0.256,-0.2526,-0.2526,-0.2526,-0.2526,0,0,0,0,0,0,0,-0.2462,-0.247,-0.2563,-0.2542,-0.2543,-0.254,-0.2544,-0.2553,-0.2548,-0.2551,-0.255,-0.2566,-0.2538,-0.2546,-0.2545,-0.2559,-0.2526,-0.2526,-0.2526,-0.2526,-0.2574,-0.2575,0,0,0,0,0,0,-0.2469,-0.2467,-0.2561,-0.2565,-0.2505,-0.2544,-0.2549,-0.2565,-0.255,-0.2549,-0.2568,-0.2564,-0.2547,-0.2545,-0.2544,-0.2633,-0.2526,-0.2526,-0.2527,-0.2573,-0.2574,-0.2576,0,0,0,0,0,0,-0.2466,-0.2477,-0.2559,-0.2522,-0.2533,-0.2549,-0.2567,-0.2567,-0.2579,-0.2565,-0.256,-0.258,-0.2545,-0.2543,-0.2549,-0.2629,-0.2526,-0.2527,-0.2572,-0.2573,-0.2575,-0.2782,0,0,0,0,0,0,-0.2462,-0.2475,-0.2486,-0.2522,-0.2535,-0.2606,-0.2569,-0.257,-0.2594,-0.259,-0.2574,-0.2569,-0.2544,-0.2548,-0.2549,-0.2627,-0.2527,-0.257,-0.2572,-0.2574,-0.2774,-0.279,-0.2805,0,0,0,0,0,-0.2457,-0.2488,-0.2486,-0.2497,-0.255,-0.2608,-0.2615,-0.2615,-0.2597,-0.2615,-0.2592,-0.2569,-0.2562,-0.255,-0.255,-0.2631,-0.2569,-0.2572,-0.2574,-0.2767,-0.2787,-0.2804,0,0,0,0,0,0,-0.244,-0.2489,-0.2487,-0.253,-0.2569,-0.2604,-0.2628,-0.2629,-0.2629,-0.2619,-0.2588,-0.2583,-0.2625,-0.258,-0.2567,-0.2641,-0.2561,-0.2564,-0.2707,-0.2726,-0.2741,-0.2706,-0.2527,0,0,0,0,0,-0.2444,-0.2472,-0.2522,-0.2553,-0.258,-0.2605,-0.2627,-0.2633,-0.2644,-0.2643,-0.2636,-0.262,-0.2638,-0.264,-0.2638,-0.2679,-0.26,-0.2722,-0.2738,-0.2752,-0.2718,-0.2704,-0.2716,-0.2584,-0.2584,-0.2584,0,0,-0.2446,-0.2476,-0.2491,-0.2551,-0.2579,-0.2642,-0.2612,-0.266,-0.2701,-0.264,-0.2684,-0.2682,-0.2658,-0.2711,-0.2725,-0.2683,-0.2745,-0.2755,-0.2769,-0.2725,-0.2708,-0.2721,-0.2733,-0.2586,-0.2585,-0.2585,0,0,-0.2475,-0.2495,-0.2535,-0.2582,-0.2639,-0.2668,-0.2688,-0.2736,-0.2743,-0.2785,-0.2765,-0.2798,-0.2804,-0.2824,-0.2829,-0.292,-0.2834,-0.2923,-0.2981,-0.2972,-0.2983,-0.2991,-0.2901,-0.29,-0.2928,-0.2928,-0.2929,0,-0.2471,-0.2546,-0.2556,-0.262,-0.2668,-0.2687,-0.2756,-0.2783,-0.2821,-0.283,-0.281,-0.285,-0.2862,-0.2928,-0.2968,-0.2966,-0.2896,-0.2931,-0.2996,-0.3002,-0.3008,-0.2912,-0.2909,-0.2939,-0.2937,-0.2936,-0.2935,0,-0.2538,-0.2612,-0.265,-0.2734,-0.277,-0.2848,-0.2888,-0.2914,-0.2925,-0.2951,-0.3,-0.301,-0.302,-0.3065,-0.305,-0.3115,-0.3031,-0.3031,-0.2959,-0.3035,-0.2928,-0.292,-0.2953,-0.295,-0.2947,-0.2944,0,0,-0.2508,-0.267,-0.2684,-0.2738,-0.2848,-0.2872,-0.2946,-0.3012,-0.3025,-0.3077,-0.3092,-0.3187,-0.3176,-0.3174,-0.3184,-0.3188,-0.3208,-0.3126,-0.3121,-0.3052,-0.3111,-0.3074,-0.306,-0.3223,-0.3223,-0.3223,-0.3019,0,-0.2573,-0.2701,-0.2771,-0.2889,-0.2961,-0.3004,-0.3054,-0.3091,-0.3114,-0.3128,-0.3162,-0.3189,-0.3226,-0.3228,-0.3257,-0.3203,-0.3196,-0.3257,-0.3029,-0.302,-0.2995,-0.3055,-0.2835,-0.2637,-0.3011,-0.3009,-0.3008,0,-0.2615,-0.2704,-0.2829,-0.2948,-0.2978,-0.3043,-0.3078,-0.3124,-0.3158,-0.3163,-0.3205,-0.3207,-0.3245,-0.3247,-0.3208,-0.3236,-0.3185,-0.314,-0.3132,-0.3009,-0.2971,-0.262,-0.2608,-0.2994,-0.2995,-0.2996,-0.2997,0,-0.255,-0.2733,-0.2824,-0.2878,-0.3014,-0.3048,-0.3098,-0.3134,-0.3124,-0.3172,-0.3146,-0.3207,-0.3181,-0.3167,-0.3129,-0.315,-0.3028,-0.3046,-0.2954,-0.2946,-0.2664,-0.2633,-0.3006,-0.3007,-0.3007,-0.3008,-0.3008,0,-0.2589,-0.2676,-0.2803,-0.2864,-0.2909,-0.3003,-0.3019,-0.3069,-0.3088,-0.3068,-0.3154,-0.3125,-0.3158,-0.3111,-0.3088,-0.2988,-0.3005,-0.2942,-0.2908,-0.2728,-0.2708,-0.294,-0.2935,-0.3,-0.3002,-0.3003,-0.3005,0,-0.2538,-0.2645,-0.273,-0.2862,-0.2889,-0.2894,-0.2946,-0.293,-0.2992,-0.2951,-0.2957,-0.3013,-0.2982,-0.2985,-0.2924,-0.2903,-0.2833,-0.2797,-0.2554,-0.25,-0.2746,-0.2754,-0.2637,-0.2634,-0.2632,-0.263,-0.2629,0,-0.2552,-0.2597,-0.2666,-0.2658,-0.2739,-0.2764,-0.2756,-0.2844,-0.2826,-0.2876,-0.2834,-0.284,-0.2821,-0.2726,-0.2695,-0.2613,-0.2734,-0.237,-0.2419,-0.2738,-0.2716,-0.2727,-0.2738,-0.2088,-0.2082,-0.2078,-0.2074,0,-0.2558,-0.2552,-0.2579,-0.2543,-0.2541,-0.2526,-0.2559,-0.254,-0.262,-0.262,-0.2632,-0.2636,-0.2588,-0.2445,-0.2384,-0.2324,-0.238,-0.2273,-0.2637,-0.2268,-0.2219,-0.22,-0.2227,-0.2031,-0.2035,-0.2038,-0.2041,-0.2042,-0.248,-0.2466,-0.2437,-0.2371,-0.2354,-0.2303,-0.2255,-0.2301,-0.2276,-0.2265,-0.2377,-0.2306,-0.2301,-0.2111,-0.2026,-0.1962,-0.2131,-0.203,-0.2044,-0.2063,-0.2089,-0.2046,-0.1821,-0.1824,-0.1826,-0.1829,-0.1831,0,-0.2347,-0.2325,-0.2278,-0.2173,-0.2067,-0.2126,-0.2099,-0.2026,-0.1982,-0.2002,-0.1999,-0.1802,-0.1719,-0.1731,-0.1568,-0.1563,-0.1539,-0.1501,-0.1458,-0.15,-0.1538,-0.1539,-0.1123,-0.1122,-0.112,-0.1118,0,0,-0.2264,-0.216,-0.2121,-0.1882,-0.1833,-0.1679,-0.1641,-0.1596,-0.1573,-0.1493,-0.1445,-0.1565,-0.1631,-0.1355,-0.1316,-0.1188,-0.1324,-0.1127,-0.1686,-0.1672,-0.1708,-0.1829,-0.1877,0,0,0,0,0]},{"header":{"parameterUnit":"m.s-1","parameterCategory":2,"la1":30.2991,"la2":30.254,"lo1":-89.0895,"lo2":-89.0444,"dy":0.0017,"dx":0.0017,"nx":28,"ny":28,"refTime":"2025-04-18T03:00:00:Z","depth":"2","parameterNumber":3,"parameterNumberName":"V-component_of_CURRENTS"},"data":[0,0,0,0,0,0,0,0,0,0,0,0,0,0,0,0,0,0,0,0,0,0,0,0,0,0,0,0,0,0,0,0,0,0,0,0,0,0,0,0,0,0,0,0,0,0,0,0,0,0,0,0,0,0,0,0,0,0,-0.0118,-0.0117,0,-0.0014,-0.0012,-0.0011,0.0043,0.0043,0.0042,0.0042,0.0202,0.0206,0.021,0,0,0,0,0,0,0,0,0,0,0,0,0,-0.0145,-0.0145,-0.0118,-0.0117,-0.0116,-0.0014,-0.0012,-0.0011,0.0043,0.0043,0.0042,0.0042,0.02,0.0206,0.0211,0,0,0,0,0,0,0,0,0,0,0,0,0,-0.0095,-0.0145,-0.0118,-0.0078,-0.0073,-0.0014,-0.0012,-0.001,0.0043,0.0043,0.0042,0.0042,0.0199,0.0205,0.0211,0.0254,0,0,0.0231,0.0234,0,0,0,0,0,0,0,0,-0.0098,-0.0094,-0.0085,-0.0081,-0.0075,-0.0,0.0037,0.008,0.0043,0.0,0.0042,0.0042,0.0139,0.015,0.0171,0.0261,0.0268,0.0232,0.0236,0.0239,0.024,0,0,0,0,0,0,0,-0.0102,-0.0097,-0.0075,-0.0084,-0.0078,-0.0022,-0.0016,0.0046,0.0071,0.0004,0.0008,0.0017,0.0142,0.0165,0.0176,0.0271,0.0232,0.0237,0.0241,0.0244,0.044,0.0441,0,0,0,0,0,0,-0.0124,-0.0101,-0.0078,-0.0072,-0.0089,-0.0022,-0.0015,-0.0023,0.0069,0.0082,0.0017,0.0019,0.0154,0.0168,0.0181,0.0271,0.0238,0.0245,0.0248,0.0439,0.044,0.0442,0,0,0,0,0,0,-0.0126,-0.0124,-0.0083,-0.0084,-0.0075,-0.0023,-0.0031,-0.0021,0.0004,0.0078,0.0093,0.0031,0.0154,0.0172,0.0235,0.0276,0.0247,0.0253,0.0437,0.0439,0.0441,0.0429,0,0,0,0,0,0,-0.0127,-0.0125,-0.0136,-0.0087,-0.0076,-0.0059,-0.003,-0.0019,0.0009,0.0012,0.0095,0.0109,0.0156,0.0225,0.0242,0.0285,0.0258,0.0436,0.0438,0.044,0.0428,0.043,0.0432,0,0,0,0,0,-0.0129,-0.0156,-0.0138,-0.0134,-0.0095,-0.0059,-0.0049,-0.0009,0.0009,0.0014,0.0074,0.0107,0.0253,0.0231,0.025,0.0296,0.0434,0.0437,0.044,0.0427,0.043,0.0432,0,0,0,0,0,0,-0.0175,-0.0151,-0.0131,-0.015,-0.0109,-0.0051,-0.0047,-0.0011,0.0041,0.0046,0.0119,0.0138,0.0225,0.0251,0.0224,0.036,0.0352,0.0359,0.0335,0.0339,0.0341,0.0264,0.0264,0,0,0,0,0,-0.019,-0.0203,-0.0158,-0.0169,-0.0156,-0.0097,-0.0077,-0.0047,0.0005,0.0027,0.0092,0.0165,0.0253,0.0282,0.036,0.0415,0.0418,0.0459,0.0461,0.0463,0.0413,0.0476,0.0479,0.0452,0.0452,0.0452,0,0,-0.0208,-0.0197,-0.0203,-0.0179,-0.0146,-0.0129,-0.0086,-0.0063,-0.0036,0.0039,0.0095,0.0186,0.0275,0.0356,0.0394,0.0376,0.0474,0.0466,0.0467,0.0416,0.0479,0.0482,0.0484,0.0454,0.0453,0.0453,0,0,-0.0259,-0.0244,-0.0272,-0.0244,-0.0205,-0.0158,-0.0153,-0.009,-0.0053,0.0013,0.0096,0.0184,0.0296,0.0369,0.0421,0.0474,0.0502,0.0521,0.0453,0.0517,0.0519,0.052,0.0526,0.0528,0.0502,0.0502,0.0502,0,-0.0282,-0.0309,-0.027,-0.0281,-0.0261,-0.0176,-0.0181,-0.0125,-0.0042,-0.0009,0.0021,0.0214,0.0298,0.0402,0.0423,0.0479,0.0494,0.0438,0.0517,0.0519,0.052,0.0526,0.0529,0.0501,0.0501,0.0501,0.0501,0,-0.0349,-0.0359,-0.0371,-0.0353,-0.0321,-0.0312,-0.0232,-0.0186,-0.0117,-0.0052,0.0065,0.0184,0.0284,0.0356,0.0402,0.0477,0.0478,0.0531,0.0501,0.0522,0.0528,0.053,0.0501,0.0501,0.0501,0.0501,0,0,-0.0426,-0.0422,-0.0424,-0.0427,-0.0359,-0.0343,-0.029,-0.0219,-0.0187,-0.0075,-0.0026,0.0146,0.0211,0.027,0.0373,0.0415,0.0463,0.0456,0.0459,0.0442,0.0557,0.0612,0.062,0.0537,0.0537,0.0538,0.0555,0,-0.0486,-0.0543,-0.0501,-0.051,-0.0527,-0.0427,-0.0385,-0.0304,-0.0212,-0.0139,-0.0002,0.0098,0.0184,0.0243,0.0306,0.0438,0.0468,0.0448,0.0553,0.0554,0.0587,0.0626,0.0583,0.0601,0.0558,0.0558,0.0558,0,-0.0565,-0.0592,-0.0643,-0.0605,-0.0598,-0.0575,-0.0494,-0.0439,-0.031,-0.0243,-0.0132,-0.0013,0.0096,0.0166,0.0333,0.0318,0.041,0.0493,0.0498,0.054,0.0614,0.0576,0.0607,0.0563,0.0563,0.0562,0.0562,0,-0.0674,-0.0676,-0.0724,-0.0716,-0.0666,-0.0652,-0.0595,-0.0482,-0.0433,-0.031,-0.0263,-0.0108,-0.0018,0.0112,0.0307,0.0315,0.0471,0.052,0.0641,0.0644,0.0618,0.0619,0.0605,0.0605,0.0605,0.0605,0.0604,0,-0.0775,-0.0799,-0.0783,-0.0819,-0.0831,-0.0752,-0.0726,-0.0652,-0.0547,-0.0489,-0.0327,-0.0249,-0.0024,0.0119,0.0262,0.046,0.0447,0.0608,0.0661,0.0615,0.0616,0.059,0.0589,0.0605,0.0605,0.0605,0.0605,0,-0.0897,-0.0893,-0.0938,-0.0915,-0.0899,-0.0908,-0.0813,-0.0781,-0.0679,-0.0604,-0.0569,-0.0358,-0.016,0.0057,0.0284,0.0418,0.0591,0.0662,0.0568,0.0611,0.0712,0.0709,0.0765,0.0768,0.0769,0.0771,0.0772,0,-0.096,-0.1017,-0.1029,-0.1042,-0.1033,-0.1014,-0.0983,-0.087,-0.082,-0.0658,-0.0625,-0.0418,-0.0233,0.0111,0.0375,0.0621,0.064,0.0713,0.0739,0.0687,0.0732,0.0727,0.0722,0.0686,0.0686,0.0687,0.0687,0,-0.1071,-0.1086,-0.1128,-0.1172,-0.1164,-0.1132,-0.1076,-0.1061,-0.0913,-0.0835,-0.0678,-0.0526,-0.0162,0.014,0.0476,0.0616,0.0672,0.0732,0.072,0.067,0.062,0.0662,0.0658,0.0691,0.0691,0.069,0.069,0.069,-0.1124,-0.1186,-0.1241,-0.1271,-0.126,-0.1224,-0.1198,-0.112,-0.104,-0.0876,-0.0728,-0.0465,-0.018,0.0325,0.0546,0.0754,0.0761,0.08,0.0795,0.079,0.0797,0.0756,0.0848,0.0849,0.0849,0.0849,0.085,0,-0.1172,-0.1244,-0.1307,-0.1331,-0.1322,-0.1291,-0.1228,-0.1167,-0.1074,-0.0888,-0.07,-0.0362,-0.0006,0.029,0.0627,0.0827,0.0801,0.0843,0.0763,0.0758,0.0754,0.0756,0.0798,0.0799,0.0799,0.0799,0,0,-0.1196,-0.1298,-0.135,-0.1368,-0.1363,-0.1319,-0.1282,-0.1187,-0.104,-0.085,-0.0643,-0.0344,0.0018,0.024,0.0481,0.065,0.0649,0.0661,0.0681,0.0552,0.0545,0.0709,0.0706,0,0,0,0,0]}],[{"header":{"parameterUnit":"m.s-1","parameterCategory":2,"la1":30.2991,"la2":30.254,"lo1":-89.0895,"lo2":-89.0444,"dy":0.0017,"dx":0.0017,"nx":28,"ny":28,"refTime":"2025-04-18T03:00:00:Z","depth":"4","parameterNumber":2,"parameterNumberName":"U-component_of_CURRENTS"},"data":[0,0,0,0,0,0,0,0,0,0,0,0,0,0,0,0,0,0,0,0,0,0,0,0,0,0,0,0,0,0,0,0,0,0,0,0,0,0,0,0,0,0,0,0,0,0,0,0,0,0,0,0,0,0,0,0,0,0,-0.1455,-0.1456,0,-0.1522,-0.1522,-0.1523,-0.161,-0.1612,-0.1614,-0.1616,-0.1636,-0.1635,-0.1634,0,0,0,0,0,0,0,0,0,0,0,0,0,-0.1281,-0.1284,-0.1455,-0.1456,-0.1457,-0.1522,-0.1522,-0.1523,-0.1609,-0.1612,-0.1614,-0.1616,-0.1637,-0.1635,-0.1634,0,0,0,0,0,0,0,0,0,0,0,0,0,-0.1348,-0.1285,-0.1454,-0.1513,-0.1519,-0.1522,-0.1522,-0.1523,-0.1609,-0.1612,-0.1615,-0.1618,-0.1637,-0.1635,-0.1633,-0.1563,0,0,-0.1628,-0.1627,0,0,0,0,0,0,0,0,-0.1344,-0.1353,-0.1503,-0.1509,-0.1516,-0.1566,-0.1469,-0.1536,-0.1608,-0.1569,-0.1616,-0.1619,-0.161,-0.161,-0.1609,-0.1564,-0.1565,-0.1627,-0.1626,-0.1625,-0.1625,0,0,0,0,0,0,0,-0.1339,-0.135,-0.1476,-0.1504,-0.1512,-0.1495,-0.1508,-0.1481,-0.1567,-0.1572,-0.158,-0.1596,-0.1613,-0.1611,-0.161,-0.1566,-0.1627,-0.1626,-0.1625,-0.1624,-0.159,-0.159,0,0,0,0,0,0,-0.1346,-0.1347,-0.1474,-0.1478,-0.1442,-0.1496,-0.1511,-0.1542,-0.1568,-0.1577,-0.1593,-0.16,-0.1612,-0.1612,-0.1611,-0.1654,-0.1625,-0.1624,-0.1623,-0.159,-0.159,-0.159,0,0,0,0,0,0,-0.1342,-0.1357,-0.1471,-0.1417,-0.1431,-0.1498,-0.1531,-0.1542,-0.1584,-0.1586,-0.1593,-0.1631,-0.1615,-0.1614,-0.1615,-0.1651,-0.1623,-0.1621,-0.1589,-0.159,-0.159,-0.1659,0,0,0,0,0,0,-0.1337,-0.1356,-0.1383,-0.1418,-0.1435,-0.1499,-0.1529,-0.1541,-0.1589,-0.1599,-0.1618,-0.1622,-0.1617,-0.1618,-0.1613,-0.1648,-0.162,-0.1589,-0.1589,-0.159,-0.1657,-0.1662,-0.1666,0,0,0,0,0,-0.1331,-0.1365,-0.1384,-0.14,-0.1471,-0.15,-0.1507,-0.1558,-0.1589,-0.1606,-0.1616,-0.1623,-0.1619,-0.1616,-0.1611,-0.1645,-0.1589,-0.1589,-0.159,-0.1654,-0.1661,-0.1666,0,0,0,0,0,0,-0.1301,-0.1378,-0.14,-0.1457,-0.1486,-0.1519,-0.1544,-0.1571,-0.1592,-0.1613,-0.1611,-0.1613,-0.1625,-0.1615,-0.1612,-0.1635,-0.161,-0.1609,-0.1661,-0.1667,-0.1671,-0.1719,-0.1618,0,0,0,0,0,-0.1305,-0.1352,-0.1406,-0.1444,-0.1469,-0.1507,-0.1529,-0.1565,-0.1588,-0.1604,-0.1612,-0.1618,-0.1612,-0.1627,-0.1609,-0.1615,-0.1626,-0.1636,-0.1641,-0.1646,-0.168,-0.1691,-0.1701,-0.1592,-0.1592,-0.1592,0,0,-0.1297,-0.1348,-0.1373,-0.144,-0.147,-0.1507,-0.1528,-0.1577,-0.1614,-0.1596,-0.164,-0.1624,-0.1611,-0.1623,-0.163,-0.1631,-0.1685,-0.1646,-0.1651,-0.1683,-0.1692,-0.1703,-0.1713,-0.1592,-0.1592,-0.1592,0,0,-0.1297,-0.1358,-0.1396,-0.1432,-0.1496,-0.1522,-0.1545,-0.1595,-0.1632,-0.1657,-0.1653,-0.1667,-0.1658,-0.1666,-0.1666,-0.1683,-0.1695,-0.1678,-0.1763,-0.1772,-0.1782,-0.1791,-0.1836,-0.1848,-0.1699,-0.1699,-0.1699,0,-0.1283,-0.1345,-0.1403,-0.1448,-0.1483,-0.1536,-0.1573,-0.1611,-0.1652,-0.1685,-0.1688,-0.1696,-0.1687,-0.1711,-0.1734,-0.17,-0.1717,-0.1744,-0.1782,-0.1791,-0.1799,-0.1842,-0.1855,-0.1703,-0.1702,-0.1702,-0.1702,0,-0.131,-0.1363,-0.1387,-0.1467,-0.151,-0.1549,-0.1617,-0.1666,-0.1714,-0.1751,-0.1792,-0.1771,-0.1792,-0.1784,-0.1776,-0.1826,-0.1825,-0.1773,-0.1775,-0.1815,-0.1857,-0.1869,-0.1708,-0.1706,-0.1705,-0.1705,0,0,-0.1257,-0.1381,-0.1392,-0.1433,-0.1529,-0.1565,-0.1644,-0.1722,-0.1796,-0.1827,-0.1898,-0.1896,-0.1911,-0.1911,-0.1889,-0.1916,-0.1991,-0.1894,-0.1893,-0.1956,-0.2051,-0.1874,-0.1871,-0.1947,-0.1949,-0.195,-0.2065,0,-0.125,-0.1342,-0.1404,-0.1473,-0.1522,-0.1606,-0.1678,-0.1766,-0.1837,-0.1918,-0.1939,-0.1982,-0.195,-0.1971,-0.1993,-0.1987,-0.2025,-0.1968,-0.1991,-0.1993,-0.1842,-0.1878,-0.1957,-0.2074,-0.2077,-0.2079,-0.208,0,-0.1249,-0.1316,-0.1399,-0.1507,-0.1538,-0.1597,-0.174,-0.1813,-0.1947,-0.2002,-0.2064,-0.2082,-0.2145,-0.2092,-0.2143,-0.2112,-0.2107,-0.2097,-0.2099,-0.1923,-0.1836,-0.2019,-0.2102,-0.21,-0.2098,-0.2097,-0.2096,0,-0.119,-0.1301,-0.1374,-0.1412,-0.1551,-0.1618,-0.1703,-0.1851,-0.1936,-0.2071,-0.2132,-0.2194,-0.2227,-0.2239,-0.2224,-0.2206,-0.2261,-0.2219,-0.206,-0.2049,-0.2148,-0.2137,-0.2254,-0.2254,-0.2254,-0.2253,-0.2253,0,-0.1147,-0.1182,-0.1367,-0.1401,-0.1505,-0.162,-0.1752,-0.1843,-0.1999,-0.2086,-0.2176,-0.2215,-0.2265,-0.2288,-0.2276,-0.2201,-0.2299,-0.2098,-0.2061,-0.2174,-0.2165,-0.2158,-0.2145,-0.2258,-0.2257,-0.2256,-0.2255,0,-0.1013,-0.1144,-0.1228,-0.1411,-0.148,-0.1561,-0.1769,-0.1866,-0.2013,-0.2126,-0.2169,-0.227,-0.2289,-0.2307,-0.2325,-0.2238,-0.2201,-0.2141,-0.2302,-0.2269,-0.1992,-0.1981,-0.2022,-0.2016,-0.2012,-0.2008,-0.2005,0,-0.0939,-0.0981,-0.1216,-0.1308,-0.1385,-0.1546,-0.1667,-0.1856,-0.1946,-0.212,-0.2143,-0.2224,-0.2256,-0.2158,-0.2188,-0.2159,-0.21,-0.2098,-0.2022,-0.2005,-0.1967,-0.1963,-0.1959,-0.1997,-0.1996,-0.1995,-0.1994,0,-0.0769,-0.0884,-0.0968,-0.1183,-0.1335,-0.1493,-0.166,-0.1718,-0.1918,-0.2049,-0.2057,-0.2056,-0.2062,-0.2051,-0.2021,-0.199,-0.2116,-0.205,-0.2059,-0.1988,-0.1976,-0.1941,-0.1943,-0.1978,-0.198,-0.1982,-0.1983,0,-0.0663,-0.0678,-0.0863,-0.1029,-0.123,-0.1395,-0.1506,-0.1615,-0.1732,-0.1903,-0.1894,-0.1955,-0.2037,-0.1962,-0.1941,-0.189,-0.1861,-0.1799,-0.1821,-0.1839,-0.1713,-0.1667,-0.156,0,0,0,0,0,-0.0585,-0.0596,-0.0706,-0.0933,-0.1132,-0.1264,-0.1484,-0.1599,-0.1779,-0.1729,-0.181,-0.1796,-0.176,-0.18,-0.1706,-0.1867,-0.1877,-0.1751,-0.182,-0.189,-0.1908,-0.177,0,0,0,0,0,0,-0.0545,-0.0603,-0.0644,-0.0827,-0.0957,-0.1178,-0.1319,-0.1447,-0.1439,-0.1587,-0.1572,-0.1666,-0.1656,-0.1762,-0.1654,-0.1665,-0.1669,-0.1796,-0.1791,-0.1879,-0.1896,-0.1911,-0.1775,0,0,0,0,0]},{"header":{"parameterUnit":"m.s-1","parameterCategory":2,"la1":30.2991,"la2":30.254,"lo1":-89.0895,"lo2":-89.0444,"dy":0.0017,"dx":0.0017,"nx":28,"ny":28,"refTime":"2025-04-18T03:00:00:Z","depth":"4","parameterNumber":3,"parameterNumberName":"V-component_of_CURRENTS"},"data":[0,0,0,0,0,0,0,0,0,0,0,0,0,0,0,0,0,0,0,0,0,0,0,0,0,0,0,0,0,0,0,0,0,0,0,0,0,0,0,0,0,0,0,0,0,0,0,0,0,0,0,0,0,0,0,0,0,0,-0.0258,-0.0257,0,-0.0236,-0.0236,-0.0236,-0.0188,-0.0187,-0.0186,-0.0185,-0.0163,-0.0163,-0.0164,0,0,0,0,0,0,0,0,0,0,0,0,0,-0.0291,-0.0291,-0.0258,-0.0257,-0.0257,-0.0236,-0.0236,-0.0236,-0.0188,-0.0187,-0.0186,-0.0184,-0.0163,-0.0163,-0.0164,0,0,0,0,0,0,0,0,0,0,0,0,0,-0.0274,-0.029,-0.0258,-0.0231,-0.0228,-0.0236,-0.0236,-0.0235,-0.0188,-0.0187,-0.0185,-0.0184,-0.0163,-0.0163,-0.0164,-0.0196,0,0,-0.0165,-0.0165,0,0,0,0,0,0,0,0,-0.0275,-0.0272,-0.0235,-0.0233,-0.023,-0.0213,-0.024,-0.0222,-0.0189,-0.0203,-0.0185,-0.0183,-0.0181,-0.018,-0.0179,-0.0195,-0.0194,-0.0165,-0.0166,-0.0166,-0.0166,0,0,0,0,0,0,0,-0.0276,-0.0273,-0.0249,-0.0235,-0.0232,-0.0232,-0.0227,-0.0236,-0.02,-0.0202,-0.0198,-0.0197,-0.0179,-0.0179,-0.0178,-0.0194,-0.0165,-0.0166,-0.0166,-0.0166,-0.0211,-0.0212,0,0,0,0,0,0,-0.0279,-0.0274,-0.025,-0.0248,-0.0249,-0.0232,-0.0227,-0.022,-0.02,-0.0196,-0.0198,-0.0195,-0.0178,-0.0178,-0.0177,-0.0203,-0.0166,-0.0166,-0.0166,-0.021,-0.0211,-0.0212,0,0,0,0,0,0,-0.0279,-0.0276,-0.0251,-0.0261,-0.0258,-0.0233,-0.0225,-0.022,-0.0215,-0.0197,-0.0192,-0.0197,-0.0177,-0.0176,-0.0191,-0.0202,-0.0166,-0.0167,-0.0209,-0.021,-0.0212,-0.0263,0,0,0,0,0,0,-0.028,-0.0277,-0.0279,-0.0261,-0.0257,-0.026,-0.0227,-0.0221,-0.0216,-0.0211,-0.0195,-0.0192,-0.0176,-0.0191,-0.0192,-0.0202,-0.0167,-0.0208,-0.021,-0.0211,-0.026,-0.0266,-0.0271,0,0,0,0,0,-0.0282,-0.0294,-0.0279,-0.0276,-0.0258,-0.0261,-0.026,-0.0237,-0.0218,-0.0225,-0.0215,-0.0192,-0.0201,-0.0193,-0.0194,-0.0204,-0.0207,-0.0209,-0.0211,-0.0258,-0.0265,-0.0271,0,0,0,0,0,0,-0.0316,-0.029,-0.0273,-0.0277,-0.027,-0.0253,-0.0262,-0.0243,-0.0241,-0.0237,-0.0213,-0.0211,-0.0238,-0.0214,-0.0204,-0.0222,-0.0197,-0.0199,-0.0232,-0.0239,-0.0244,-0.0215,-0.0168,0,0,0,0,0,-0.0324,-0.0322,-0.03,-0.0306,-0.0304,-0.0283,-0.0282,-0.0266,-0.026,-0.0256,-0.0246,-0.0237,-0.0249,-0.0236,-0.0252,-0.0256,-0.0192,-0.026,-0.0265,-0.027,-0.0247,-0.0175,-0.0171,-0.0219,-0.0219,-0.0219,0,0,-0.0343,-0.0326,-0.0328,-0.0313,-0.0305,-0.0313,-0.0279,-0.0283,-0.0285,-0.0257,-0.0268,-0.0275,-0.0264,-0.028,-0.0285,-0.0253,-0.0223,-0.0272,-0.0276,-0.025,-0.0177,-0.0172,-0.0167,-0.022,-0.022,-0.022,0,0,-0.0385,-0.0362,-0.0376,-0.0371,-0.0359,-0.0344,-0.0346,-0.0333,-0.032,-0.0333,-0.0322,-0.0323,-0.0333,-0.0317,-0.0311,-0.035,-0.0278,-0.0362,-0.0337,-0.0269,-0.0264,-0.0258,-0.0166,-0.0152,-0.0336,-0.0336,-0.0336,0,-0.041,-0.0416,-0.0386,-0.0398,-0.0396,-0.0359,-0.0377,-0.0365,-0.0359,-0.0347,-0.0342,-0.0342,-0.0344,-0.0334,-0.0349,-0.036,-0.0298,-0.0316,-0.0273,-0.0266,-0.0259,-0.0167,-0.015,-0.0338,-0.0338,-0.0338,-0.0337,0,-0.0454,-0.0465,-0.0477,-0.0469,-0.0464,-0.0478,-0.0449,-0.0443,-0.0422,-0.04,-0.0396,-0.0388,-0.0368,-0.0381,-0.0378,-0.0339,-0.0304,-0.0311,-0.0251,-0.0257,-0.016,-0.0142,-0.0342,-0.0341,-0.034,-0.034,0,0,-0.0497,-0.0507,-0.0512,-0.052,-0.0501,-0.0501,-0.0498,-0.0477,-0.0456,-0.0441,-0.0405,-0.0425,-0.0391,-0.0381,-0.037,-0.0303,-0.022,-0.028,-0.0275,-0.0178,-0.0038,-0.0083,-0.0067,-0.0215,-0.0212,-0.021,0.0013,0,-0.0543,-0.0585,-0.0568,-0.0602,-0.0619,-0.0576,-0.057,-0.0539,-0.0501,-0.0459,-0.0411,-0.0393,-0.0397,-0.0381,-0.032,-0.0256,-0.0174,-0.0277,-0.0055,-0.0047,-0.0079,-0.0049,-0.0202,0.0027,0.0031,0.0035,0.0037,0,-0.0588,-0.0608,-0.0656,-0.0656,-0.0656,-0.0666,-0.0621,-0.0608,-0.0531,-0.0496,-0.0436,-0.0391,-0.0307,-0.0311,-0.0143,-0.0205,-0.0121,-0.0056,-0.0046,-0.0051,-0.0059,0.0033,0.0071,0.0068,0.0066,0.0063,0.0061,0,-0.0628,-0.0663,-0.0702,-0.0707,-0.0703,-0.0706,-0.0689,-0.0626,-0.0597,-0.0504,-0.0458,-0.0354,-0.0291,-0.017,-0.0054,-0.008,0.0147,0.0129,0.0181,0.018,0.0179,0.0171,0.0264,0.0264,0.0264,0.0263,0.0262,0,-0.0674,-0.0703,-0.0731,-0.0755,-0.0777,-0.0749,-0.0738,-0.0701,-0.0627,-0.058,-0.0479,-0.041,-0.0253,-0.0117,-0.0012,0.0144,0.0188,0.0208,0.0236,0.015,0.0136,0.0193,0.0182,0.0271,0.027,0.0268,0.0266,0,-0.071,-0.0731,-0.0781,-0.0803,-0.0806,-0.0819,-0.0785,-0.0762,-0.0687,-0.0614,-0.058,-0.0422,-0.0242,-0.0082,0.0133,0.0192,0.0345,0.0384,0.0312,0.0327,0.0336,0.0319,0.0501,0.0501,0.0502,0.0502,0.0502,0,-0.0724,-0.0761,-0.0825,-0.0848,-0.0865,-0.087,-0.0864,-0.0806,-0.0767,-0.0625,-0.0586,-0.0401,-0.0288,0.0017,0.0158,0.0397,0.0391,0.0486,0.0386,0.0353,0.0362,0.0344,0.0328,0.0502,0.0502,0.0502,0.0503,0,-0.0748,-0.0787,-0.0831,-0.0893,-0.0917,-0.0921,-0.0906,-0.0878,-0.0787,-0.0728,-0.0562,-0.0398,-0.0195,0.0016,0.0196,0.0346,0.0434,0.0489,0.0489,0.0396,0.0357,0.0361,0.0345,0.0503,0.0503,0.0503,0.0503,0,-0.0763,-0.0796,-0.0864,-0.0911,-0.0955,-0.0957,-0.0939,-0.0867,-0.0812,-0.0656,-0.0607,-0.038,-0.0244,-0.0008,0.0153,0.0303,0.0324,0.0347,0.0355,0.0356,0.0209,0.0132,0.0258,0,0,0,0,0,-0.0769,-0.0801,-0.0857,-0.091,-0.0967,-0.0984,-0.0956,-0.0919,-0.0838,-0.0729,-0.066,-0.0471,-0.02,-0.007,0.0075,0.013,0.0328,0.03,0.0352,0.0508,0.0507,0.035,0,0,0,0,0,0,-0.0761,-0.0823,-0.0856,-0.0914,-0.095,-0.0983,-0.0972,-0.0913,-0.0828,-0.0731,-0.0576,-0.0476,-0.0206,-0.0292,0.0063,0.0111,0.0155,0.0436,0.0438,0.0509,0.0508,0.0507,0.0346,0,0,0,0,0]}]]